Find Kuiper-00082

NORAD ID: 64828 Int'l Des: 2025-151 Owner: KUIP Country: US Constellation: kuiper operational
LEOCIRCULAR

Live-Position

3D-Globus wird geladen...

Über Kuiper-00082

Beschreibung wird geladen...

Nächste Überflüge

Passes for default location (London). Set your location on the main map for personalized predictions.

Höhenverlauf

Loading altitude history...

Zweizeiliger Elementsatz

1 64828U 25151N 26106.72532135 .00003569 00000-0 49705-3 0 9996
2 64828 51.9023 119.9095 0000496 286.3612 73.7296 14.79925610 41116
Epoch: 16. Apr. 2026 • Age: 12 hours

Aktueller Status

Höhe 635.7 km
Geschwindigkeit 7.55 km/s
Subsatellitenpunkt 50.73°N, 91.74°W
Startdatum 16. Juli 2025
Alter 0.7 years
Typ internet

Technische Details

Klassifizierung Payload
Masse 490.00 kg
Trockenmasse 490.00 kg
Gesamtmasse 490.00 kg
Länge 1.80 m
Durchmesser 0.70 m
Spannweite 5.00 m
Form Box + 2 pan
Hersteller KUIP
Bus-Typ Kuiper
Phasenstatus In Orbit
Besitzer/Staat KUIP/US

Most Searched